Regional Weather Roundup
Issued by NWS

Home | Current Version | Previous Version | Graphics & Text | Print | Product List | Glossary On
Versions: 1 2 3 4 5 6 7 8 9 10 11 12 13 14 15 16 17 18 19 20 21 22 23 24 25 26 27 28 29 30 31 32 33 34 35 36 37 38 39 40 41 42 43 44 45 46 47 48 49 50
000
ASUS45 KSLC 252010
RWRUT

UTAH REGIONAL WEATHER ROUNDUP
NATIONAL WEATHER SERVICE SALT LAKE CITY UT
200 PM MDT FRI MAY 25 2018

UTZ001>011-023>025-252100-

NORTHERN UTAH

CITY           SKY/WX    TMP DP  RH WIND       PRES   REMARKS
BRIGHAM CITY   SUNNY     81  34  18 CALM      29.94F
HILL AFB       SUNNY     81  34  18 SW7       29.96F
LOGAN          SUNNY     80  49  33 NE5       29.94F
OGDEN          SUNNY     82  35  18 S6        29.94F
SALT LAKE CITY MOSUNNY   88  34  14 MISG      29.91F
TOOELE VALLEY  SUNNY     82  41  23 N5G16     29.93F
WENDOVER       SUNNY     84  25  11 S16       29.90F
HEBER CITY       N/A     82  32  16 W8        29.98F
WEST JORDAN    SUNNY     83  42  23 SE9       29.95F

$$

UTZ011>015-024>027-252100-

CENTRAL/NORTHEAST UTAH

CITY           SKY/WX    TMP DP  RH WIND       PRES   REMARKS
PROVO AIRPORT  MOSUNNY   81  32  17 CALM      29.96F
MOAB/CANYONLAN SUNNY     88  14   6 SW13G23   29.96F
DELTA          SUNNY     81  23  12 SW14G20   29.98F
PRICE          SUNNY     83  17   8 SE13G29   30.06F
ROOSEVELT      SUNNY     86  27  11 CALM      30.01F
VERNAL         SUNNY     85  22  10 SW5       30.00F

$$

UTZ013>016-019>022-027-252100-

SOUTHERN UTAH

CITY           SKY/WX    TMP DP  RH WIND       PRES   REMARKS
BRYCE CANYON   SUNNY     71  11  10 S22G32    30.21F
CEDAR CITY     SUNNY     80  23  12 S22G31    30.04F
MILFORD        SUNNY     83  15   8 S28G35    29.98F
ST GEORGE      CLEAR     89  29  11 W14G20    29.91F
HANKSVILLE     SUNNY     88  19   8 S10G21    30.00S
BLANDING         N/A     80  18  10 S7G22     30.21F

$$

REGIONAL REPORTS     COLORADO/ARIZONA

CITY           SKY/WX    TMP DP  RH WIND       PRES   REMARKS
CRAIG, CO      SUNNY     82  30  15 CALM      30.09F
GRAND JUNCTION SUNNY     90  23   9 VRB7G16   29.99F
RIFLE, CO      SUNNY     87  20   8 VRB5      30.04F
MONTROSE, CO   SUNNY     84  14   7 VRB3G17   30.06F
CORTEZ, CO     SUNNY     83  16   8 SW13      30.15F
COLORADO CITY    N/A     86  23  10 S10G24    30.08F
PAGE, AZ       SUNNY     88  14   6 S13       30.01F
GRAND CANYON   SUNNY     76  15  10 SW17G25   30.20F
KINGMAN, AZ    SUNNY     87  22   9 SW29G38   29.99F
FLAGSTAFF, AZ  SUNNY     71  20  14 S17G25    30.24F

$$

REGIONAL REPORTS    NEVADA/IDAHO/WYOMING

CITY           SKY/WX    TMP DP  RH WIND       PRES   REMARKS
LAS VEGAS, NV  MOSUNNY   89  28  11 SW13G28   29.87F
ELY, NY        SUNNY     73  27  18 S29G40    30.01F
ELKO, NV       SUNNY     80  32  17 SE14G22   29.91F
POCATELLO, ID  MOSUNNY   83  52  34 SW7       29.93F
BURLEY, ID     MOSUNNY   84  41  21 VRB3      29.88F
FORT BRIDGER,    N/A     77  29  17 SE3       30.14F
EVANSTON, WY   MOSUNNY   75  36  24 SE9       30.11F
ROCK SPRINGS,  SUNNY     78  24  13 SW12      30.10F

$$



USA.gov is the U.S. government's official web portal to all federal, state and local government web resources and services.